• In Hungary
  • List of Countries
  • For 7 days
  • Water Temperature
  • Satellite Maps
  • Weather Map
  • News
  • Weather Widgets
  • user-avatar
    Login

    Hourly Weather Osaka

    Today, 24 September, Monday

    Time Temperature Precipitation Wind Pressure Humidity
    00:00 +24°C° 0 mm 1 mps 762 mmHg 75%
    01:00 +24°C° 0 mm 1 mps 761 mmHg 76%
    02:00 +22°C° 0 mm 0 mps 761 mmHg 77%
    03:00 +22°C° 0 mm 0 mps 761 mmHg 79%
    04:00 +22°C° 0 mm 0 mps 761 mmHg 79%
    05:00 +21°C° 0 mm 0 mps 761 mmHg 79%
    06:00 +21°C° 0 mm 0 mps 762 mmHg 79%
    07:00 +23°C° 0 mm 0 mps 761 mmHg 73%
    08:00 +25°C° 0 mm 0 mps 761 mmHg 66%
    09:00 +26°C° 0 mm 0 mps 762 mmHg 60%
    10:00 +26°C° 0 mm 0 mps 762 mmHg 55%
    11:00 +29°C° 0 mm 1 mps 761 mmHg 51%
    12:00 +30°C° 0 mm 2 mps 761 mmHg 47%
    13:00 +30°C° 0 mm 2 mps 761 mmHg 47%
    14:00 +30°C° 0 mm 2 mps 761 mmHg 47%
    15:00 +29°C° 0 mm 1 mps 761 mmHg 52%
    16:00 +28°C° 0 mm 2 mps 761 mmHg 54%
    17:00 +27°C° 0 mm 2 mps 761 mmHg 57%
    18:00 +26°C° 0 mm 2 mps 761 mmHg 60%
    19:00 +26°C° 0 mm 2 mps 761 mmHg 63%
    20:00 +25°C° 0 mm 2 mps 761 mmHg 66%
    21:00 +25°C° 0 mm 2 mps 761 mmHg 69%
    22:00 +24°C° 0 mm 2 mps 761 mmHg 70%
    23:00 +24°C° 0 mm 2 mps 761 mmHg 71%

    Tomorrow, 25 September, Tuesday

    Time Temperature Precipitation Wind Pressure Humidity
    00:00 +24°C° 0 mm 2 mps 762 mmHg 73%
    01:00 +24°C° 0.1 mm 2 mps 761 mmHg 75%
    02:00 +24°C° 0.1 mm 2 mps 761 mmHg 77%
    03:00 +23°C° 0.1 mm 2 mps 761 mmHg 79%
    04:00 +23°C° 0.5 mm 2 mps 761 mmHg 80%
    05:00 +23°C° 0.5 mm 1 mps 761 mmHg 81%
    06:00 +23°C° 0.5 mm 1 mps 761 mmHg 82%
    07:00 +23°C° 1.5 mm 1 mps 761 mmHg 83%
    08:00 +23°C° 1.5 mm 1 mps 762 mmHg 83%
    09:00 +23°C° 1.5 mm 1 mps 762 mmHg 83%
    10:00 +23°C° 0.7 mm 1 mps 762 mmHg 80%
    11:00 +24°C° 0.7 mm 1 mps 762 mmHg 77%
    12:00 +24°C° 0.7 mm 1 mps 761 mmHg 74%
    13:00 +25°C° 0 mm 2 mps 761 mmHg 71%
    14:00 +26°C° 0 mm 2 mps 761 mmHg 67%
    15:00 +27°C° 0 mm 2 mps 760 mmHg 64%
    16:00 +26°C° 0 mm 2 mps 760 mmHg 67%
    17:00 +25°C° 0 mm 2 mps 760 mmHg 71%
    18:00 +24°C° 0 mm 3 mps 760 mmHg 74%
    19:00 +24°C° 0 mm 3 mps 761 mmHg 76%
    20:00 +22°C° 0 mm 3 mps 761 mmHg 78%
    21:00 +22°C° 0 mm 3 mps 761 mmHg 80%
    22:00 +22°C° 0 mm 3 mps 761 mmHg 82%
    23:00 +21°C° 0 mm 3 mps 761 mmHg 83%

    Day after tomorrow, 26 September, Wednesday

    Time Temperature Precipitation Wind Pressure Humidity
    00:00 +21°C° 0 mm 3 mps 761 mmHg 84%
    01:00 +21°C° 0 mm 3 mps 761 mmHg 84%
    02:00 +21°C° 0 mm 3 mps 761 mmHg 85%
    03:00 +20°C° 0 mm 3 mps 761 mmHg 86%
    04:00 +20°C° 0 mm 3 mps 761 mmHg 86%
    05:00 +20°C° 0 mm 3 mps 761 mmHg 86%
    06:00 +20°C° 0 mm 3 mps 761 mmHg 86%
    07:00 +21°C° 0 mm 3 mps 761 mmHg 82%
    08:00 +24°C° 0 mm 3 mps 761 mmHg 77%
    09:00 +25°C° 0 mm 4 mps 761 mmHg 72%
    10:00 +26°C° 0 mm 4 mps 761 mmHg 69%
    11:00 +26°C° 0 mm 4 mps 761 mmHg 67%
    12:00 +27°C° 0 mm 4 mps 761 mmHg 64%
    13:00 +27°C° 0.1 mm 4 mps 760 mmHg 66%
    14:00 +26°C° 0.1 mm 4 mps 760 mmHg 68%
    15:00 +26°C° 0.1 mm 4 mps 760 mmHg 70%
    16:00 +25°C° 0.1 mm 4 mps 760 mmHg 73%
    17:00 +25°C° 0.1 mm 4 mps 760 mmHg 75%
    18:00 +23°C° 0.1 mm 4 mps 760 mmHg 78%
    19:00 +23°C° 0.2 mm 4 mps 760 mmHg 79%
    20:00 +23°C° 0.2 mm 4 mps 760 mmHg 80%
    21:00 +22°C° 0.2 mm 4 mps 760 mmHg 81%
    22:00 +22°C° 1.4 mm 3 mps 760 mmHg 83%
    23:00 +22°C° 1.4 mm 3 mps 760 mmHg 85%

    27 September, Thursday

    Time Temperature Precipitation Wind Pressure Humidity
    00:00 +22°C° 1.4 mm 3 mps 759 mmHg 87%
    01:00 +21°C° 2.3 mm 3 mps 759 mmHg 88%
    02:00 +21°C° 2.3 mm 3 mps 759 mmHg 88%
    03:00 +21°C° 2.3 mm 3 mps 758 mmHg 89%
    04:00 +21°C° 2.6 mm 3 mps 758 mmHg 89%
    05:00 +21°C° 2.6 mm 3 mps 758 mmHg 90%
    06:00 +21°C° 2.6 mm 3 mps 758 mmHg 90%
    07:00 +21°C° 2.2 mm 3 mps 758 mmHg 89%
    08:00 +21°C° 2.2 mm 4 mps 759 mmHg 88%
    09:00 +21°C° 2.2 mm 4 mps 759 mmHg 88%
    10:00 +21°C° 2.5 mm 3 mps 759 mmHg 87%
    11:00 +21°C° 2.5 mm 3 mps 758 mmHg 87%
    12:00 +21°C° 2.5 mm 2 mps 758 mmHg 86%
    13:00 +21°C° 1.7 mm 2 mps 758 mmHg 86%
    14:00 +21°C° 1.7 mm 2 mps 758 mmHg 86%
    15:00 +21°C° 1.7 mm 2 mps 757 mmHg 86%
    16:00 +20°C° 0.7 mm 2 mps 758 mmHg 86%
    17:00 +20°C° 0.7 mm 2 mps 758 mmHg 87%
    18:00 +20°C° 0.7 mm 2 mps 758 mmHg 87%
    19:00 +20°C° 0.2 mm 2 mps 759 mmHg 87%
    20:00 +20°C° 0.2 mm 2 mps 759 mmHg 87%
    21:00 +21°C° 0.2 mm 1 mps 759 mmHg 87%
    22:00 +21°C° 0 mm 1 mps 759 mmHg 87%
    23:00 +20°C° 0 mm 2 mps 759 mmHg 88%

    28 September, Friday

    Time Temperature Precipitation Wind Pressure Humidity
    00:00 +19°C° 0 mm 2 mps 759 mmHg 88%
    01:00 +19°C° 0 mm 2 mps 759 mmHg 89%
    02:00 +19°C° 0 mm 2 mps 759 mmHg 89%
    03:00 +19°C° 0 mm 2 mps 759 mmHg 89%
    04:00 +18°C° 0 mm 2 mps 759 mmHg 89%
    05:00 +18°C° 0 mm 2 mps 760 mmHg 89%
    06:00 +18°C° 0 mm 2 mps 760 mmHg 89%
    07:00 +20°C° 0 mm 2 mps 760 mmHg 83%
    08:00 +21°C° 0 mm 2 mps 761 mmHg 77%
    09:00 +24°C° 0 mm 2 mps 761 mmHg 70%
    10:00 +25°C° 0 mm 2 mps 761 mmHg 64%
    11:00 +27°C° 0 mm 2 mps 761 mmHg 58%
    12:00 +28°C° 0 mm 2 mps 760 mmHg 52%
    13:00 +28°C° 0 mm 3 mps 760 mmHg 51%
    14:00 +28°C° 0 mm 3 mps 760 mmHg 51%
    15:00 +28°C° 0 mm 3 mps 760 mmHg 50%
    16:00 +27°C° 0 mm 3 mps 760 mmHg 56%
    17:00 +25°C° 0 mm 3 mps 761 mmHg 62%
    18:00 +24°C° 0 mm 3 mps 761 mmHg 69%
    19:00 +22°C° 0 mm 3 mps 762 mmHg 72%
    20:00 +21°C° 0 mm 2 mps 762 mmHg 75%
    21:00 +20°C° 0 mm 2 mps 762 mmHg 78%
    22:00 +20°C° 0 mm 2 mps 762 mmHg 79%
    23:00 +20°C° 0 mm 2 mps 762 mmHg 80%

    29 September, Saturday

    Time Temperature Precipitation Wind Pressure Humidity
    00:00 +19°C° 0 mm 2 mps 762 mmHg 82%
    01:00 +19°C° 0 mm 2 mps 762 mmHg 82%
    02:00 +20°C° 0 mm 1 mps 762 mmHg 83%
    03:00 +20°C° 0 mm 1 mps 762 mmHg 84%
    04:00 +19°C° 0 mm 2 mps 762 mmHg 84%
    05:00 +19°C° 0 mm 2 mps 762 mmHg 84%
    06:00 +19°C° 0 mm 2 mps 763 mmHg 85%
    07:00 +20°C° 0 mm 2 mps 762 mmHg 78%
    08:00 +23°C° 0 mm 2 mps 762 mmHg 71%
    09:00 +25°C° 0 mm 2 mps 762 mmHg 65%
    10:00 +27°C° 0 mm 2 mps 762 mmHg 59%
    11:00 +28°C° 0 mm 1 mps 762 mmHg 54%
    12:00 +29°C° 0 mm 1 mps 761 mmHg 49%
    13:00 +28°C° 0.1 mm 2 mps 761 mmHg 54%
    14:00 +27°C° 0.1 mm 2 mps 760 mmHg 58%
    15:00 +27°C° 0.1 mm 3 mps 760 mmHg 63%
    16:00 +26°C° 0.4 mm 2 mps 760 mmHg 67%
    17:00 +25°C° 0.4 mm 2 mps 760 mmHg 71%
    18:00 +24°C° 0.4 mm 2 mps 760 mmHg 75%
    19:00 +24°C° 0.5 mm 1 mps 760 mmHg 77%
    20:00 +23°C° 0.5 mm 1 mps 760 mmHg 79%
    21:00 +23°C° 0.5 mm 1 mps 760 mmHg 80%
    22:00 +23°C° 0.6 mm 1 mps 759 mmHg 82%
    23:00 +23°C° 0.6 mm 1 mps 759 mmHg 84%
    Show more